EW9033 Weather Reports


Display with metric or nautical units.
time (UTC)temp
F
wind
direction
speed
MPH
gust
MPH
rain 1hr
in
rain 24hr
in
rain mn
in
humidity
%
barometer
mb
20260504022508 48 190 0.0 2.0 0.00 0.09 0.09 56 1012.9
20260504022011 48 190 0.0 2.0 0.00 0.09 0.09 55 1012.9
20260504021527 49 190 0.0 1.0 0.00 0.09 0.09 55 1012.8
20260504021007 49 190 0.0 2.0 0.00 0.09 0.09 53 1012.8
20260504020508 49 190 1.0 2.0 0.00 0.09 0.09 54 1012.8
20260504020028 50 188 1.0 3.0 0.00 0.09 0.09 53 1012.8
20260504015507 50 178 1.0 3.0 0.00 0.09 0.09 52 1012.9
20260504015009 50 192 1.0 2.0 0.00 0.09 0.09 51 1012.9
20260504014537 51 195 0.0 2.0 0.00 0.09 0.09 50 1012.9
20260504014010 51 198 0.0 2.0 0.00 0.09 0.09 49 1012.9
20260504013510 51 198 0.0 2.0 0.00 0.09 0.09 48 1012.8
20260504013029 52 211 0.0 3.0 0.00 0.09 0.09 48 1012.8
20260504012507 52 211 1.0 5.0 0.00 0.09 0.09 47 1012.8
20260504012007 52 209 1.0 5.0 0.00 0.09 0.09 45 1012.7
20260504011529 53 239 0.0 4.0 0.00 0.09 0.09 45 1012.7
20260504011007 53 216 1.0 5.0 0.00 0.09 0.09 45 1012.8
20260504010509 53 217 1.0 5.0 0.00 0.09 0.09 45 1012.8
20260504010028 53 202 2.0 5.0 0.00 0.09 0.09 45 1012.8
20260504005508 53 210 2.0 6.0 0.00 0.09 0.09 45 1012.8
20260504005011 53 166 2.0 6.0 0.00 0.09 0.09 44 1012.9
20260504004528 54 267 0.0 4.0 0.00 0.09 0.09 44 1012.8
20260504004008 54 213 0.0 7.0 0.00 0.09 0.09 43 1012.7
20260504003509 54 244 1.0 7.0 0.00 0.09 0.09 43 1012.6
20260504003033 54 255 1.0 7.0 0.00 0.09 0.09 42 1012.6
20260504002510 54 223 1.0 7.0 0.00 0.09 0.09 42 1012.7
20260504002014 55 262 1.0 7.0 0.00 0.09 0.09 42 1012.8
20260504001536 55 232 2.0 8.0 0.00 0.09 0.09 42 1012.8
20260504001007 55 226 1.0 8.0 0.00 0.09 0.09 42 1012.6
20260504000507 55 193 3.0 9.0 0.00 0.09 0.09 41 1012.6
20260504000031 55 171 3.0 9.0 0.00 0.09 0.09 41 1012.6
20260503235508 55 258 1.0 9.0 0.00 0.09 0.09 40 1012.7
20260503235008 55 247 3.0 9.0 0.00 0.09 0.09 41 1012.5
20260503234526 55 232 3.0 10.0 0.00 0.09 0.09 40 1012.5
20260503234012 56 227 4.0 12.0 0.00 0.09 0.09 40 1012.5
20260503233508 56 210 5.0 12.0 0.00 0.09 0.09 40 1012.4
20260503233028 56 218 3.0 8.0 0.00 0.09 0.09 41 1012.5
20260503232510 56 223 1.0 7.0 0.00 0.09 0.09 40 1012.5
20260503232011 56 255 3.0 9.0 0.00 0.09 0.09 39 1012.5
20260503231530 57 250 3.0 9.0 0.00 0.09 0.09 38 1012.5
20260503231010 57 245 4.0 9.0 0.00 0.09 0.09 38 1012.6
20260503230510 57 198 3.0 14.0 0.00 0.09 0.09 38 1012.5
20260503230028 57 277 3.0 13.0 0.00 0.09 0.09 38 1012.5
20260503225510 57 229 6.0 12.0 0.00 0.09 0.09 38 1012.5
20260503225009 57 277 5.0 12.0 0.00 0.09 0.09 38 1012.5
20260503224527 57 251 6.0 12.0 0.00 0.09 0.09 37 1012.6
20260503224008 57 250 4.0 17.0 0.00 0.09 0.09 37 1012.6
20260503223512 57 215 5.0 17.0 0.00 0.09 0.09 36 1012.6
20260503223026 58 336 5.0 14.0 0.00 0.09 0.09 36 1012.6
20260503222508 58 263 3.0 10.0 0.00 0.09 0.09 37 1012.7
20260503222007 57 263 4.0 13.0 0.00 0.09 0.09 36 1012.6
20260503221527 57 251 5.0 13.0 0.00 0.09 0.09 36 1012.8
20260503221012 57 260 4.0 11.0 0.00 0.09 0.09 36 1012.7
20260503220509 58 193 4.0 12.0 0.00 0.09 0.09 35 1012.8
20260503220028 58 241 3.0 14.0 0.00 0.09 0.09 36 1012.7
20260503215510 58 281 4.0 14.0 0.00 0.09 0.09 38 1012.6
20260503215013 58 204 6.0 10.0 0.00 0.09 0.09 37 1012.5
20260503214528 58 165 3.0 11.0 0.00 0.09 0.09 37 1012.5
20260503214009 58 306 3.0 18.0 0.00 0.09 0.09 36 1012.6
20260503213510 59 227 8.0 18.0 0.00 0.09 0.09 34 1012.5
20260503213026 58 271 7.0 14.0 0.00 0.09 0.09 36 1012.5
20260503212510 57 213 4.0 10.0 0.00 0.09 0.09 37 1012.5
20260503212011 57 234 4.0 14.0 0.00 0.09 0.09 38 1012.5
20260503211529 57 254 4.0 14.0 0.00 0.09 0.09 36 1012.5
20260503211007 58 322 5.0 15.0 0.01 0.09 0.09 35 1012.5
20260503210507 57 193 5.0 15.0 0.01 0.09 0.09 37 1012.6
20260503210033 58 207 5.0 13.0 0.01 0.09 0.09 36 1012.7
20260503205509 57 229 3.0 11.0 0.01 0.09 0.09 39 1012.9
20260503205007 57 180 5.0 15.0 0.01 0.09 0.09 37 1012.9
20260503204529 57 259 8.0 16.0 0.01 0.09 0.09 36 1012.9
20260503204017 57 254 6.0 16.0 0.01 0.09 0.09 38 1013.0
20260503203507 57 360 4.0 12.0 0.01 0.09 0.09 39 1013.0
20260503203026 58 277 7.0 13.0 0.01 0.09 0.09 35 1013.0
20260503202511 58 256 7.0 13.0 0.01 0.09 0.09 36 1013.2
20260503202013 57 214 6.0 14.0 0.01 0.09 0.09 36 1013.2
20260503201528 57 292 5.0 14.0 0.01 0.09 0.09 36 1013.2
20260503201007 57 288 8.0 14.0 0.00 0.08 0.08 35 1013.3
20260503200510 58 248 6.0 14.0 0.00 0.08 0.08 35 1013.3
20260503200007 58 302 8.0 16.0 0.00 0.08 0.08 35 1013.2
20260503195503 58 244 6.0 16.0 0.00 0.08 0.08 35 1013.3
20260503195003 57 188 5.0 12.0 0.00 0.08 0.08 37 1013.4
20260503194508 57 204 4.0 18.0 0.00 0.08 0.08 35 1013.5
20260503194003 57 300 11.0 18.0 0.00 0.08 0.08 36 1013.6
20260503193503 58 207 4.0 15.0 0.00 0.08 0.08 38 1013.8
20260503193007 59 322 5.0 15.0 0.00 0.08 0.08 40 1013.8
20260503192503 57 188 5.0 15.0 0.00 0.08 0.08 40 1013.8
20260503192003 56 219 4.0 14.0 0.00 0.08 0.08 39 1013.8
20260503191525 56 210 6.0 13.0 0.00 0.08 0.08 41 1013.9
20260503191004 55 228 3.0 13.0 0.00 0.08 0.08 43 1014.0
20260503190504 55 313 6.0 18.0 0.00 0.08 0.08 38 1014.0
20260503190008 56 202 10.0 18.0 0.00 0.08 0.08 40 1014.0
20260503185503 55 245 8.0 14.0 0.00 0.08 0.08 38 1014.2
20260503185004 55 259 6.0 12.0 0.00 0.08 0.08 41 1014.2
20260503184506 55 199 6.0 14.0 0.00 0.08 0.08 39 1014.3
20260503184004 56 284 6.0 19.0 0.00 0.08 0.08 37 1014.3
20260503183503 56 307 8.0 19.0 0.00 0.08 0.08 41 1014.3
20260503183009 55 242 7.0 14.0 0.00 0.08 0.08 39 1014.4
20260503182505 55 225 3.0 14.0 0.00 0.08 0.08 39 1014.5
20260503182003 55 200 5.0 11.0 0.00 0.08 0.08 44 1014.5
20260503181508 55 234 4.0 15.0 0.00 0.08 0.08 40 1014.5
20260503181005 55 271 4.0 15.0 0.00 0.08 0.08 40 1014.5
20260503180507 55 296 4.0 13.0 0.00 0.08 0.08 39 1014.6
20260503180010 55 313 5.0 14.0 0.00 0.08 0.08 39 1014.6
20260503175504 55 256 8.0 17.0 0.00 0.08 0.08 41 1014.8
20260503175004 55 223 8.0 17.0 0.00 0.08 0.08 42 1014.8
20260503174507 55 229 2.0 14.0 0.00 0.08 0.08 45 1014.9
20260503174006 54 271 3.0 17.0 0.00 0.08 0.08 42 1015.0
20260503173503 54 268 6.0 17.0 0.00 0.08 0.08 41 1015.2
20260503173008 54 283 8.0 16.0 0.00 0.08 0.08 38 1015.0
20260503172505 54 5 7.0 14.0 0.00 0.08 0.08 39 1015.1
20260503172003 53 290 2.0 14.0 0.01 0.08 0.08 41 1015.3
20260503171508 53 162 7.0 18.0 0.01 0.08 0.08 41 1015.4
20260503171003 53 170 6.0 18.0 0.01 0.08 0.08 40 1015.4
20260503170504 53 284 6.0 15.0 0.01 0.08 0.08 41 1015.5
20260503150503 49 209 5.0 13.0 0.01 0.07 0.07 44 1016.4
20260503131005 42 216 2.0 8.0 0.03 0.04 0.04 74 1017.0
20260503110504 29 343 0.0 0.0 0.00 0.00 0.00 94 1016.0
20260503090504 29 343 0.0 0.0 0.00 0.00 0.00 93 1015.4
20260503081523 30 343 0.0 0.0 0.00 0.00 0.00 92 1015.5
20260503081007 31 343 0.0 0.0 0.00 0.00 0.00 92 1015.4
20260503080507 31 343 0.0 0.0 0.00 0.00 0.00 92 1015.4
20260503072505 32 343 0.0 0.0 0.00 0.00 0.00 92 1015.2
20260503072013 32 343 0.0 0.0 0.00 0.00 0.00 92 1015.3
20260503071518 32 343 0.0 0.0 0.00 0.00 0.00 92 1015.2
20260503071005 32 343 0.0 0.0 0.00 0.00 0.00 92 1015.3
20260503070507 32 343 0.0 0.0 0.00 0.00 0.00 92 1015.3
20260503055009 33 343 0.0 0.0 0.00 0.00 0.00 91 1015.4
20260503054520 33 343 0.0 0.0 0.00 0.00 0.00 91 1015.4
20260503054006 33 343 0.0 0.0 0.00 0.00 0.00 91 1015.5
20260503053508 33 343 0.0 0.0 0.00 0.00 0.00 91 1015.5
20260503053023 33 343 0.0 0.0 0.00 0.00 0.00 91 1015.6
20260503052002 33 343 0.0 0.0 0.00 0.00 0.00 90 1015.6
20260503051511 33 343 0.0 0.0 0.00 0.00 0.00 90 1015.6
20260503045004 33 343 0.0 0.0 0.00 0.00 0.00 90 1015.7
20260503044508 33 343 0.0 0.0 0.00 0.00 0.00 90 1015.7
20260503044003 33 343 0.0 0.0 0.00 0.00 0.00 90 1015.7
20260503043502 33 343 0.0 0.0 0.00 0.00 0.00 90 1015.7
20260503043029 33 343 0.0 0.0 0.00 0.00 0.00 89 1015.8
20260503042506 33 343 0.0 0.0 0.00 0.00 0.00 89 1015.8
20260503042003 33 343 0.0 0.0 0.00 0.00 0.00 88 1015.8
20260503041507 33 343 0.0 0.0 0.00 0.00 0.00 88 1015.8
20260503041007 33 343 0.0 0.0 0.00 0.00 0.00 88 1015.9
20260503040504 33 343 0.0 0.0 0.00 0.00 0.00 88 1015.8
20260503040008 33 343 0.0 0.0 0.00 0.00 0.00 88 1015.8
20260503035003 33 343 0.0 0.0 0.00 0.00 0.00 87 1015.9
20260503034003 34 343 0.0 0.0 0.00 0.00 0.00 86 1015.8
20260503033504 34 343 0.0 0.0 0.00 0.00 0.00 86 1015.8
20260503033016 34 343 0.0 0.0 0.00 0.00 0.00 85 1015.8
20260503032504 34 343 0.0 0.0 0.00 0.00 0.00 85 1015.8
20260503032002 35 343 0.0 0.0 0.00 0.00 0.00 84 1015.8
20260503031508 35 343 0.0 0.0 0.00 0.00 0.00 84 1015.8
20260503031002 35 343 0.0 0.0 0.00 0.00 0.00 84 1015.9
20260503030501 36 343 0.0 0.0 0.00 0.00 0.00 84 1015.9
20260503030007 36 343 0.0 0.0 0.00 0.00 0.00 83 1015.9
20260503025503 36 343 0.0 0.0 0.00 0.00 0.00 82 1015.9
20260503025003 36 343 0.0 0.0 0.00 0.00 0.00 82 1015.9
20260503024516 37 343 0.0 0.0 0.00 0.00 0.00 82 1015.9
20260503024004 37 343 0.0 0.0 0.00 0.00 0.00 82 1015.9
20260503023505 37 343 0.0 0.0 0.00 0.00 0.00 81 1016.0
20260503023006 37 343 0.0 0.0 0.00 0.00 0.00 81 1016.0